| time (UTC) | temp C | wind direction | speed KPH | gust KPH | rain 1hr cm | rain 24hr cm | rain mn cm | humidity % | barometer mb |
| 20260902153525 | 31 | 275 | 6.4 | 16.1 | 0.00 | 0.00 | 0.00 | 54 | 1012.4 |
| 20260902153017 | 31 | 222 | 12.9 | 16.1 | 0.00 | 0.00 | 0.00 | 55 | 1012.4 |
| 20260902152503 | 31 | 221 | 8.0 | 14.5 | 0.00 | 0.00 | 0.00 | 57 | 1012.4 |
| 20260902152055 | 31 | 248 | 6.4 | 14.5 | 0.00 | 0.00 | 0.00 | 59 | 1012.5 |
| 20260902151548 | 30 | 200 | 4.8 | 17.7 | 0.00 | 0.00 | 0.00 | 62 | 1012.4 |
| 20260902151033 | 30 | 238 | 11.3 | 17.7 | 0.00 | 0.00 | 0.00 | 63 | 1012.5 |
| 20260902150526 | 29 | 213 | 6.4 | 14.5 | 0.00 | 0.00 | 0.00 | 66 | 1012.4 |
| 20260902150059 | 29 | 254 | 6.4 | 12.9 | 0.00 | 0.00 | 0.00 | 67 | 1012.4 |
| 20260902145549 | 29 | 234 | 6.4 | 12.9 | 0.00 | 0.00 | 0.00 | 68 | 1012.5 |
| 20260902145038 | 29 | 227 | 8.0 | 14.5 | 0.00 | 0.00 | 0.00 | 69 | 1012.5 |
| 20260902144527 | 28 | 222 | 9.7 | 14.5 | 0.00 | 0.00 | 0.00 | 71 | 1012.5 |
| 20260902144017 | 28 | 204 | 8.0 | 14.5 | 0.00 | 0.00 | 0.00 | 73 | 1012.5 |
| 20260902143506 | 28 | 213 | 9.7 | 16.1 | 0.00 | 0.00 | 0.00 | 74 | 1012.6 |
| 20260902143058 | 28 | 209 | 11.3 | 16.1 | 0.00 | 0.00 | 0.00 | 75 | 1012.5 |
| 20260902142547 | 27 | 236 | 11.3 | 17.7 | 0.00 | 0.00 | 0.00 | 75 | 1012.6 |
| 20260902142038 | 27 | 208 | 9.7 | 16.1 | 0.00 | 0.00 | 0.00 | 77 | 1012.7 |
| 20260902141527 | 27 | 208 | 9.7 | 16.1 | 0.00 | 0.00 | 0.00 | 79 | 1012.7 |
| 20260902141016 | 26 | 263 | 8.0 | 14.5 | 0.00 | 0.00 | 0.00 | 81 | 1012.7 |
| 20260902140505 | 26 | 219 | 4.8 | 11.3 | 0.00 | 0.00 | 0.00 | 83 | 1012.7 |
| 20260902140043 | 25 | 205 | 4.8 | 9.7 | 0.00 | 0.00 | 0.00 | 84 | 1012.7 |
| 20260902135532 | 25 | 264 | 1.6 | 12.9 | 0.00 | 0.00 | 0.00 | 86 | 1012.6 |
| 20260902135021 | 25 | 194 | 6.4 | 12.9 | 0.00 | 0.00 | 0.00 | 87 | 1012.7 |
| 20260902134511 | 24 | 205 | 6.4 | 16.1 | 0.00 | 0.00 | 0.00 | 89 | 1012.7 |
| 20260902134001 | 23 | 221 | 8.0 | 12.9 | 0.00 | 0.00 | 0.00 | 91 | 1012.7 |
| 20260902133552 | 23 | 207 | 6.4 | 12.9 | 0.00 | 0.00 | 0.00 | 92 | 1012.6 |
| 20260902133052 | 22 | 220 | 3.2 | 8.0 | 0.00 | 0.00 | 0.00 | 93 | 1012.6 |
| 20260902132533 | 22 | 279 | 0.0 | 0.0 | 0.00 | 0.00 | 0.00 | 93 | 1012.6 |
| 20260902132018 | 22 | 279 | 0.0 | 0.0 | 0.00 | 0.00 | 0.00 | 93 | 1012.5 |
| 20260902131508 | 21 | 279 | 0.0 | 0.0 | 0.00 | 0.00 | 0.00 | 94 | 1012.6 |
| 20260902131101 | 21 | 242 | 0.0 | 1.6 | 0.00 | 0.00 | 0.00 | 93 | 1012.6 |
| 20260902130549 | 21 | 241 | 0.0 | 1.6 | 0.00 | 0.00 | 0.00 | 93 | 1012.5 |
| 20260902130026 | 21 | 319 | 0.0 | 1.6 | 0.00 | 0.00 | 0.00 | 93 | 1012.4 |
| 20260902125515 | 20 | 250 | 0.0 | 1.6 | 0.00 | 0.00 | 0.00 | 93 | 1012.3 |
| 20260902125005 | 20 | 204 | 0.0 | 0.0 | 0.00 | 0.00 | 0.00 | 93 | 1012.2 |
| 20260902124603 | 20 | 204 | 0.0 | 0.0 | 0.00 | 0.00 | 0.00 | 92 | 1012.2 |
| 20260902124046 | 20 | 204 | 0.0 | 0.0 | 0.00 | 0.00 | 0.00 | 92 | 1012.1 |
| 20260902123534 | 20 | 204 | 0.0 | 0.0 | 0.00 | 0.00 | 0.00 | 92 | 1012.0 |
| 20260902123023 | 20 | 207 | 0.0 | 0.0 | 0.00 | 0.00 | 0.00 | 92 | 1012.1 |
| 20260902122513 | 20 | 273 | 0.0 | 0.0 | 0.00 | 0.00 | 0.00 | 92 | 1012.1 |
| 20260902122004 | 20 | 273 | 0.0 | 0.0 | 0.00 | 0.00 | 0.00 | 91 | 1012.0 |
| 20260902121558 | 20 | 273 | 0.0 | 0.0 | 0.00 | 0.00 | 0.00 | 91 | 1012.0 |
| 20260902121043 | 20 | 273 | 0.0 | 0.0 | 0.00 | 0.00 | 0.00 | 91 | 1012.0 |
| 20260902120532 | 20 | 273 | 0.0 | 0.0 | 0.00 | 0.00 | 0.00 | 91 | 1011.9 |
| 20260902120010 | 20 | 273 | 0.0 | 0.0 | 0.00 | 0.00 | 0.00 | 91 | 1011.9 |
| 20260902115601 | 20 | 273 | 0.0 | 0.0 | 0.00 | 0.00 | 0.00 | 91 | 1011.9 |
| 20260902115051 | 20 | 273 | 0.0 | 0.0 | 0.00 | 0.00 | 0.00 | 91 | 1011.9 |
| 20260902114539 | 20 | 273 | 0.0 | 0.0 | 0.00 | 0.00 | 0.00 | 91 | 1011.9 |
| 20260902114029 | 20 | 273 | 0.0 | 0.0 | 0.00 | 0.00 | 0.00 | 91 | 1011.9 |
| 20260902113517 | 20 | 273 | 0.0 | 0.0 | 0.00 | 0.00 | 0.00 | 91 | 1011.9 |
| 20260902113004 | 20 | 273 | 0.0 | 0.0 | 0.00 | 0.00 | 0.00 | 91 | 1011.9 |
| 20260902112555 | 20 | 273 | 0.0 | 0.0 | 0.00 | 0.00 | 0.00 | 91 | 1011.8 |
| 20260902112045 | 20 | 273 | 0.0 | 0.0 | 0.00 | 0.00 | 0.00 | 90 | 1011.7 |
| 20260902111537 | 20 | 273 | 0.0 | 0.0 | 0.00 | 0.00 | 0.00 | 90 | 1011.6 |
| 20260902111023 | 20 | 273 | 0.0 | 0.0 | 0.00 | 0.00 | 0.00 | 90 | 1011.7 |
| 20260902110513 | 20 | 273 | 0.0 | 0.0 | 0.00 | 0.00 | 0.00 | 90 | 1011.7 |
| 20260902110052 | 20 | 273 | 0.0 | 0.0 | 0.00 | 0.00 | 0.00 | 90 | 1011.6 |
| 20260902105541 | 21 | 273 | 0.0 | 0.0 | 0.00 | 0.00 | 0.00 | 90 | 1011.7 |
| 20260902105030 | 21 | 273 | 0.0 | 1.6 | 0.00 | 0.00 | 0.00 | 90 | 1011.7 |
| 20260902104519 | 21 | 273 | 0.0 | 0.0 | 0.00 | 0.00 | 0.00 | 89 | 1011.7 |
| 20260902104008 | 21 | 273 | 0.0 | 0.0 | 0.00 | 0.00 | 0.00 | 89 | 1011.7 |
| 20260902103600 | 21 | 273 | 0.0 | 0.0 | 0.00 | 0.00 | 0.00 | 89 | 1011.7 |
| 20260902103052 | 21 | 273 | 0.0 | 0.0 | 0.00 | 0.00 | 0.00 | 89 | 1011.7 |
| 20260902102538 | 21 | 273 | 0.0 | 0.0 | 0.00 | 0.00 | 0.00 | 89 | 1011.7 |
| 20260902102029 | 21 | 273 | 0.0 | 0.0 | 0.00 | 0.00 | 0.00 | 89 | 1011.7 |
| 20260902101528 | 21 | 273 | 0.0 | 0.0 | 0.00 | 0.00 | 0.00 | 89 | 1011.7 |
| 20260902101007 | 21 | 273 | 0.0 | 0.0 | 0.00 | 0.00 | 0.00 | 89 | 1011.8 |
| 20260902100557 | 21 | 273 | 0.0 | 0.0 | 0.00 | 0.00 | 0.00 | 89 | 1011.8 |
| 20260902100035 | 21 | 273 | 0.0 | 0.0 | 0.00 | 0.00 | 0.00 | 88 | 1011.7 |
| 20260902095524 | 21 | 273 | 0.0 | 0.0 | 0.00 | 0.00 | 0.00 | 88 | 1011.7 |
| 20260902095012 | 21 | 273 | 0.0 | 0.0 | 0.00 | 0.00 | 0.00 | 88 | 1011.7 |
| 20260902094502 | 21 | 273 | 0.0 | 0.0 | 0.00 | 0.00 | 0.00 | 88 | 1011.8 |
| 20260902094053 | 21 | 273 | 0.0 | 0.0 | 0.00 | 0.00 | 0.00 | 88 | 1011.8 |
| 20260902093543 | 21 | 273 | 0.0 | 0.0 | 0.00 | 0.00 | 0.00 | 88 | 1011.9 |
| 20260902093041 | 21 | 273 | 0.0 | 0.0 | 0.00 | 0.00 | 0.00 | 88 | 1011.9 |
| 20260902092521 | 21 | 273 | 0.0 | 0.0 | 0.00 | 0.00 | 0.00 | 88 | 1011.8 |
| 20260902092010 | 21 | 273 | 0.0 | 0.0 | 0.00 | 0.00 | 0.00 | 87 | 1011.8 |
| 20260902091602 | 21 | 273 | 0.0 | 1.6 | 0.00 | 0.00 | 0.00 | 87 | 1011.9 |
| 20260902091053 | 21 | 273 | 0.0 | 1.6 | 0.00 | 0.00 | 0.00 | 87 | 1011.9 |
| 20260902090540 | 22 | 273 | 0.0 | 3.2 | 0.00 | 0.00 | 0.00 | 86 | 1011.9 |
| 20260902090017 | 22 | 273 | 0.0 | 3.2 | 0.00 | 0.00 | 0.00 | 86 | 1012.0 |
| 20260902085511 | 22 | 79 | 0.0 | 0.0 | 0.00 | 0.00 | 0.00 | 85 | 1011.9 |
| 20260902085057 | 22 | 79 | 0.0 | 0.0 | 0.00 | 0.00 | 0.00 | 85 | 1011.8 |
| 20260902084554 | 22 | 79 | 0.0 | 0.0 | 0.00 | 0.00 | 0.00 | 85 | 1011.8 |
| 20260902084036 | 22 | 79 | 0.0 | 0.0 | 0.00 | 0.00 | 0.00 | 84 | 1011.8 |
| 20260902083529 | 22 | 79 | 0.0 | 0.0 | 0.00 | 0.00 | 0.00 | 84 | 1011.8 |
| 20260902083017 | 22 | 79 | 0.0 | 0.0 | 0.00 | 0.00 | 0.00 | 84 | 1011.8 |
| 20260902082503 | 22 | 79 | 0.0 | 0.0 | 0.00 | 0.00 | 0.00 | 84 | 1011.9 |
| 20260902082058 | 22 | 79 | 0.0 | 0.0 | 0.00 | 0.00 | 0.00 | 84 | 1011.9 |
| 20260902081605 | 22 | 79 | 0.0 | 0.0 | 0.00 | 0.00 | 0.00 | 83 | 1012.0 |
| 20260902081034 | 22 | 79 | 0.0 | 0.0 | 0.00 | 0.00 | 0.00 | 83 | 1012.1 |
| 20260902080523 | 23 | 79 | 0.0 | 0.0 | 0.00 | 0.00 | 0.00 | 83 | 1012.1 |
| 20260902075551 | 23 | 79 | 0.0 | 0.0 | 0.00 | 0.00 | 0.00 | 83 | 1012.1 |
| 20260902075040 | 23 | 79 | 0.0 | 0.0 | 0.00 | 0.00 | 0.00 | 83 | 1012.2 |
| 20260902074529 | 23 | 79 | 0.0 | 0.0 | 0.00 | 0.00 | 0.00 | 83 | 1012.1 |
| 20260902074019 | 23 | 79 | 0.0 | 0.0 | 0.00 | 0.00 | 0.00 | 82 | 1012.1 |
| 20260902073508 | 23 | 79 | 0.0 | 0.0 | 0.00 | 0.00 | 0.00 | 81 | 1012.1 |
| 20260902073059 | 23 | 79 | 0.0 | 0.0 | 0.00 | 0.00 | 0.00 | 82 | 1011.9 |
| 20260902072549 | 23 | 79 | 0.0 | 0.0 | 0.00 | 0.00 | 0.00 | 81 | 1012.0 |
| 20260902072038 | 24 | 79 | 0.0 | 0.0 | 0.00 | 0.00 | 0.00 | 81 | 1012.1 |
| 20260902071534 | 24 | 79 | 0.0 | 0.0 | 0.00 | 0.00 | 0.00 | 80 | 1012.0 |
| 20260902071020 | 24 | 79 | 0.0 | 0.0 | 0.00 | 0.00 | 0.00 | 81 | 1012.2 |
| 20260902070505 | 24 | 79 | 0.0 | 0.0 | 0.00 | 0.00 | 0.00 | 80 | 1012.2 |
| 20260902070045 | 24 | 79 | 0.0 | 0.0 | 0.00 | 0.00 | 0.00 | 80 | 1012.1 |
| 20260902065536 | 25 | 79 | 0.0 | 0.0 | 0.00 | 0.00 | 0.00 | 80 | 1012.1 |
| 20260902065024 | 25 | 79 | 0.0 | 0.0 | 0.00 | 0.00 | 0.00 | 78 | 1012.2 |
| 20260902064514 | 25 | 79 | 0.0 | 0.0 | 0.00 | 0.00 | 0.00 | 77 | 1012.2 |
| 20260902064002 | 25 | 79 | 0.0 | 0.0 | 0.00 | 0.00 | 0.00 | 77 | 1012.1 |
| 20260902063553 | 25 | 79 | 0.0 | 0.0 | 0.00 | 0.00 | 0.00 | 77 | 1012.1 |
| 20260902063046 | 25 | 79 | 0.0 | 0.0 | 0.00 | 0.00 | 0.00 | 77 | 1012.1 |
| 20260902062531 | 25 | 79 | 0.0 | 0.0 | 0.00 | 0.00 | 0.00 | 76 | 1012.1 |
| 20260902062022 | 25 | 79 | 0.0 | 0.0 | 0.00 | 0.00 | 0.00 | 76 | 1012.0 |
| 20260902061522 | 25 | 79 | 0.0 | 0.0 | 0.00 | 0.00 | 0.00 | 76 | 1012.0 |
| 20260902061104 | 25 | 79 | 0.0 | 4.8 | 0.00 | 0.00 | 0.00 | 76 | 1012.1 |
| 20260902060553 | 26 | 79 | 0.0 | 4.8 | 0.00 | 0.00 | 0.00 | 75 | 1012.1 |
| 20260902060027 | 26 | 105 | 0.0 | 3.2 | 0.00 | 0.00 | 0.00 | 75 | 1012.0 |
| 20260902055516 | 26 | 105 | 0.0 | 1.6 | 0.00 | 0.00 | 0.00 | 75 | 1012.0 |
| 20260902055006 | 26 | 105 | 0.0 | 1.6 | 0.00 | 0.00 | 0.00 | 75 | 1011.9 |
| 20260902054559 | 26 | 105 | 0.0 | 0.0 | 0.00 | 0.00 | 0.00 | 75 | 1012.0 |
| 20260902054046 | 26 | 104 | 0.0 | 0.0 | 0.00 | 0.00 | 0.00 | 74 | 1012.0 |
| 20260902053536 | 26 | 104 | 0.0 | 4.8 | 0.00 | 0.00 | 0.00 | 74 | 1012.0 |
| 20260902053028 | 26 | 104 | 0.0 | 4.8 | 0.00 | 0.00 | 0.00 | 74 | 1011.9 |
| 20260902052516 | 26 | 82 | 0.0 | 0.0 | 0.00 | 0.00 | 0.00 | 74 | 1012.0 |
| 20260902052004 | 26 | 82 | 0.0 | 0.0 | 0.00 | 0.00 | 0.00 | 73 | 1012.0 |
| 20260902051555 | 26 | 82 | 0.0 | 1.6 | 0.00 | 0.00 | 0.00 | 73 | 1012.0 |
| 20260902051044 | 26 | 82 | 0.0 | 3.2 | 0.00 | 0.00 | 0.00 | 73 | 1011.9 |
| 20260902050536 | 26 | 82 | 0.0 | 0.0 | 0.00 | 0.00 | 0.00 | 72 | 1011.9 |
| 20260902050011 | 27 | 82 | 0.0 | 3.2 | 0.00 | 0.00 | 0.00 | 72 | 1011.9 |
| 20260902045601 | 27 | 82 | 0.0 | 3.2 | 0.00 | 0.00 | 0.00 | 71 | 1011.9 |
| 20260902045050 | 27 | 82 | 0.0 | 0.0 | 0.00 | 0.00 | 0.00 | 71 | 1011.8 |
| 20260902044601 | 27 | 82 | 0.0 | 4.8 | 0.00 | 0.00 | 0.00 | 70 | 1011.9 |
| 20260902044030 | 27 | 82 | 0.0 | 4.8 | 0.00 | 0.00 | 0.00 | 70 | 1011.9 |
| 20260902043518 | 27 | 82 | 0.0 | 3.2 | 0.00 | 0.00 | 0.00 | 69 | 1011.8 |
| 20260902043008 | 27 | 82 | 0.0 | 6.4 | 0.00 | 0.00 | 0.00 | 69 | 1011.8 |
| 20260902042559 | 27 | 82 | 0.0 | 6.4 | 0.00 | 0.00 | 0.00 | 69 | 1011.8 |
| 20260902042051 | 27 | 102 | 1.6 | 6.4 | 0.00 | 0.00 | 0.00 | 68 | 1011.8 |
| 20260902041538 | 28 | 111 | 0.0 | 6.4 | 0.00 | 0.00 | 0.00 | 68 | 1011.8 |
| 20260902041030 | 28 | 113 | 0.0 | 3.2 | 0.00 | 0.00 | 0.00 | 67 | 1011.7 |
| 20260902040516 | 28 | 121 | 0.0 | 3.2 | 0.00 | 0.00 | 0.00 | 66 | 1011.6 |
| 20260902040058 | 28 | 109 | 0.0 | 3.2 | 0.00 | 0.00 | 0.00 | 66 | 1011.5 |
| 20260902035544 | 28 | 109 | 0.0 | 3.2 | 0.00 | 0.00 | 0.00 | 66 | 1011.6 |
| 20260902035034 | 28 | 107 | 0.0 | 3.2 | 0.00 | 0.00 | 0.00 | 66 | 1011.6 |
| 20260902034527 | 28 | 106 | 0.0 | 4.8 | 0.00 | 0.00 | 0.00 | 65 | 1011.6 |
| 20260902034011 | 28 | 108 | 0.0 | 4.8 | 0.00 | 0.00 | 0.00 | 65 | 1011.6 |
| 20260902033602 | 28 | 115 | 0.0 | 4.8 | 0.00 | 0.00 | 0.00 | 65 | 1011.6 |
| 20260902033102 | 28 | 124 | 1.6 | 11.3 | 0.00 | 0.00 | 0.00 | 65 | 1011.5 |
| 20260902032541 | 28 | 127 | 1.6 | 11.3 | 0.00 | 0.00 | 0.00 | 65 | 1011.4 |
| 20260902032030 | 28 | 103 | 1.6 | 6.4 | 0.00 | 0.00 | 0.00 | 65 | 1011.3 |
| 20260902031519 | 28 | 136 | 0.0 | 4.8 | 0.00 | 0.00 | 0.00 | 65 | 1011.2 |
| 20260902031008 | 28 | 99 | 0.0 | 3.2 | 0.00 | 0.00 | 0.00 | 65 | 1011.1 |
| 20260902030600 | 28 | 96 | 0.0 | 3.2 | 0.00 | 0.00 | 0.00 | 65 | 1011.0 |
| 20260902030036 | 28 | 94 | 0.0 | 0.0 | 0.00 | 0.00 | 0.00 | 65 | 1010.9 |
| 20260902025526 | 28 | 94 | 0.0 | 1.6 | 0.00 | 0.00 | 0.00 | 64 | 1010.8 |
| 20260902025015 | 28 | 94 | 0.0 | 1.6 | 0.00 | 0.00 | 0.00 | 64 | 1010.7 |
| 20260902024511 | 28 | 92 | 0.0 | 3.2 | 0.00 | 0.00 | 0.00 | 64 | 1010.6 |
| 20260902024059 | 28 | 92 | 0.0 | 3.2 | 0.00 | 0.00 | 0.00 | 64 | 1010.6 |
| 20260902023544 | 28 | 92 | 0.0 | 3.2 | 0.00 | 0.00 | 0.00 | 63 | 1010.5 |
| 20260902023035 | 28 | 90 | 0.0 | 3.2 | 0.00 | 0.00 | 0.00 | 63 | 1010.4 |
| 20260902022520 | 28 | 90 | 0.0 | 1.6 | 0.00 | 0.00 | 0.00 | 62 | 1010.4 |
| 20260902022010 | 29 | 90 | 0.0 | 1.6 | 0.00 | 0.00 | 0.00 | 62 | 1010.3 |
| 20260902021601 | 29 | 90 | 0.0 | 1.6 | 0.00 | 0.00 | 0.00 | 62 | 1010.3 |
| 20260902021050 | 29 | 90 | 0.0 | 0.0 | 0.00 | 0.00 | 0.00 | 61 | 1010.1 |
| 20260902020539 | 30 | 90 | 0.0 | 0.0 | 0.00 | 0.00 | 0.00 | 60 | 1010.0 |
| 20260902020021 | 30 | 90 | 0.0 | 0.0 | 0.00 | 0.00 | 0.00 | 59 | 1009.9 |
| 20260902015504 | 30 | 90 | 0.0 | 0.0 | 0.00 | 0.00 | 0.00 | 58 | 1009.9 |
| 20260902015056 | 31 | 90 | 0.0 | 0.0 | 0.00 | 0.00 | 0.00 | 59 | 1009.8 |
| 20260902014545 | 31 | 90 | 0.0 | 0.0 | 0.00 | 0.00 | 0.00 | 58 | 1009.8 |
| 20260902014034 | 31 | 90 | 0.0 | 0.0 | 0.00 | 0.00 | 0.00 | 56 | 1009.8 |
| 20260902013524 | 31 | 90 | 0.0 | 3.2 | 0.00 | 0.00 | 0.00 | 56 | 1009.7 |
| 20260902013013 | 31 | 90 | 0.0 | 4.8 | 0.00 | 0.00 | 0.00 | 55 | 1009.6 |
| 20260902012505 | 31 | 88 | 0.0 | 9.7 | 0.00 | 0.00 | 0.00 | 55 | 1009.6 |
| 20260902012053 | 31 | 88 | 1.6 | 9.7 | 0.00 | 0.00 | 0.00 | 54 | 1009.6 |
| 20260902011542 | 32 | 94 | 1.6 | 9.7 | 0.00 | 0.00 | 0.00 | 54 | 1009.5 |
| 20260902011032 | 32 | 106 | 3.2 | 11.3 | 0.00 | 0.00 | 0.00 | 53 | 1009.4 |
| 20260902010523 | 32 | 105 | 1.6 | 17.7 | 0.00 | 0.00 | 0.00 | 53 | 1009.4 |
| 20260902010101 | 32 | 88 | 4.8 | 17.7 | 0.00 | 0.00 | 0.00 | 53 | 1009.4 |
| 20260902005550 | 32 | 74 | 6.4 | 16.1 | 0.00 | 0.00 | 0.00 | 52 | 1009.4 |
| 20260902005040 | 32 | 80 | 4.8 | 12.9 | 0.00 | 0.00 | 0.00 | 51 | 1009.4 |
| 20260902004528 | 33 | 111 | 4.8 | 16.1 | 0.00 | 0.00 | 0.00 | 51 | 1009.4 |
| 20260902004015 | 33 | 114 | 6.4 | 20.9 | 0.00 | 0.00 | 0.00 | 50 | 1009.4 |
| 20260902003504 | 33 | 102 | 9.7 | 20.9 | 0.00 | 0.00 | 0.00 | 49 | 1009.4 |
| 20260902003056 | 33 | 136 | 6.4 | 20.9 | 0.00 | 0.00 | 0.00 | 46 | 1009.5 |
| 20260902002544 | 34 | 67 | 0.0 | 3.2 | 0.00 | 0.00 | 0.00 | 45 | 1009.4 |
| 20260902002034 | 34 | 65 | 0.0 | 3.2 | 0.00 | 0.00 | 0.00 | 45 | 1009.4 |
| 20260902001524 | 34 | 55 | 0.0 | 6.4 | 0.00 | 0.00 | 0.00 | 45 | 1009.4 |
| 20260902001012 | 34 | 83 | 1.6 | 6.4 | 0.00 | 0.00 | 0.00 | 44 | 1009.5 |
| 20260902000502 | 35 | 85 | 0.0 | 6.4 | 0.00 | 0.00 | 0.00 | 44 | 1009.4 |
| 20260902000041 | 35 | 71 | 1.6 | 8.0 | 0.00 | 0.00 | 0.00 | 43 | 1009.4 |
| 20260901235531 | 35 | 49 | 3.2 | 9.7 | 0.00 | 0.00 | 0.00 | 42 | 1009.4 |
| 20260901235019 | 35 | 47 | 3.2 | 9.7 | 0.00 | 0.00 | 0.00 | 42 | 1009.4 |
| 20260901234507 | 35 | 94 | 0.0 | 3.2 | 0.00 | 0.00 | 0.00 | 44 | 1009.4 |
| 20260901234059 | 35 | 101 | 0.0 | 4.8 | 0.00 | 0.00 | 0.00 | 44 | 1009.4 |
| 20260901233549 | 35 | 99 | 0.0 | 6.4 | 0.00 | 0.00 | 0.00 | 44 | 1009.4 |
| 20260901233039 | 35 | 163 | 3.2 | 9.7 | 0.00 | 0.00 | 0.00 | 43 | 1009.4 |
| 20260901232527 | 35 | 181 | 1.6 | 11.3 | 0.00 | 0.00 | 0.00 | 43 | 1009.4 |
| 20260901232016 | 36 | 145 | 4.8 | 11.3 | 0.00 | 0.00 | 0.00 | 42 | 1009.3 |
| 20260901231506 | 36 | 98 | 3.2 | 14.5 | 0.00 | 0.00 | 0.00 | 42 | 1009.3 |
| 20260901231056 | 36 | 128 | 8.0 | 14.5 | 0.00 | 0.00 | 0.00 | 41 | 1009.3 |
| 20260901230546 | 36 | 147 | 4.8 | 14.5 | 0.00 | 0.00 | 0.00 | 42 | 1009.4 |
| 20260901230022 | 36 | 133 | 1.6 | 16.1 | 0.00 | 0.00 | 0.00 | 41 | 1009.3 |
| 20260901225511 | 36 | 155 | 11.3 | 16.1 | 0.00 | 0.00 | 0.00 | 41 | 1009.4 |
| 20260901225101 | 36 | 167 | 4.8 | 11.3 | 0.00 | 0.00 | 0.00 | 42 | 1009.3 |
| 20260901224551 | 36 | 221 | 6.4 | 14.5 | 0.00 | 0.00 | 0.00 | 42 | 1009.3 |
| 20260901224043 | 36 | 191 | 6.4 | 14.5 | 0.00 | 0.00 | 0.00 | 43 | 1009.3 |
| 20260901223529 | 35 | 128 | 8.0 | 14.5 | 0.00 | 0.00 | 0.00 | 44 | 1009.3 |
| 20260901223026 | 35 | 121 | 0.0 | 12.9 | 0.00 | 0.00 | 0.00 | 45 | 1009.3 |
| 20260901222508 | 35 | 84 | 4.8 | 12.9 | 0.00 | 0.00 | 0.00 | 45 | 1009.3 |
| 20260901222058 | 35 | 86 | 9.7 | 12.9 | 0.00 | 0.00 | 0.00 | 45 | 1009.4 |
| 20260901221548 | 35 | 86 | 6.4 | 11.3 | 0.00 | 0.00 | 0.00 | 45 | 1009.4 |
| 20260901221038 | 35 | 157 | 1.6 | 12.9 | 0.00 | 0.00 | 0.00 | 44 | 1009.4 |
| 20260901220526 | 35 | 113 | 4.8 | 16.1 | 0.00 | 0.00 | 0.00 | 44 | 1009.3 |
| 20260901220002 | 35 | 91 | 8.0 | 14.5 | 0.00 | 0.00 | 0.00 | 44 | 1009.4 |
| 20260901215554 | 35 | 116 | 1.6 | 11.3 | 0.00 | 0.00 | 0.00 | 44 | 1009.4 |
| 20260901215043 | 35 | 154 | 3.2 | 12.9 | 0.00 | 0.00 | 0.00 | 43 | 1009.5 |
| 20260901214535 | 36 | 159 | 3.2 | 11.3 | 0.00 | 0.00 | 0.00 | 42 | 1009.5 |
| 20260901214021 | 36 | 177 | 6.4 | 16.1 | 0.00 | 0.00 | 0.00 | 42 | 1009.5 |
| 20260901213511 | 35 | 167 | 4.8 | 11.3 | 0.00 | 0.00 | 0.00 | 44 | 1009.6 |
| 20260901213120 | 35 | 132 | 1.6 | 12.9 | 0.00 | 0.00 | 0.00 | 43 | 1009.6 |
| 20260901212552 | 36 | 110 | 1.6 | 14.5 | 0.00 | 0.00 | 0.00 | 42 | 1009.7 |
| 20260901212041 | 36 | 138 | 3.2 | 14.5 | 0.00 | 0.00 | 0.00 | 41 | 1009.7 |
| 20260901211530 | 36 | 158 | 0.0 | 8.0 | 0.00 | 0.00 | 0.00 | 41 | 1009.7 |
| 20260901211019 | 36 | 153 | 1.6 | 11.3 | 0.00 | 0.00 | 0.00 | 41 | 1009.8 |
| 20260901210509 | 37 | 130 | 4.8 | 17.7 | 0.00 | 0.00 | 0.00 | 41 | 1009.9 |
| 20260901210048 | 37 | 140 | 9.7 | 17.7 | 0.00 | 0.00 | 0.00 | 40 | 1009.9 |
| 20260901205538 | 37 | 191 | 6.4 | 14.5 | 0.00 | 0.00 | 0.00 | 40 | 1010.0 |
| 20260901205026 | 37 | 165 | 8.0 | 14.5 | 0.00 | 0.00 | 0.00 | 41 | 1010.1 |
| 20260901204517 | 37 | 136 | 8.0 | 16.1 | 0.00 | 0.00 | 0.00 | 41 | 1010.2 |
| 20260901204006 | 36 | 215 | 1.6 | 12.9 | 0.00 | 0.00 | 0.00 | 42 | 1010.2 |
| 20260901203557 | 36 | 53 | 3.2 | 12.9 | 0.00 | 0.00 | 0.00 | 42 | 1010.3 |
| 20260901203046 | 36 | 192 | 0.0 | 16.1 | 0.00 | 0.00 | 0.00 | 43 | 1010.5 |
| 20260901202539 | 36 | 103 | 8.0 | 25.7 | 0.00 | 0.00 | 0.00 | 44 | 1010.5 |
| 20260901202027 | 36 | 126 | 11.3 | 25.7 | 0.00 | 0.00 | 0.00 | 44 | 1010.6 |
| 20260901201514 | 36 | 194 | 4.8 | 12.9 | 0.00 | 0.00 | 0.00 | 44 | 1010.6 |
| 20260901201002 | 36 | 117 | 6.4 | 16.1 | 0.00 | 0.00 | 0.00 | 43 | 1010.7 |
| 20260901200552 | 36 | 116 | 8.0 | 16.1 | 0.00 | 0.00 | 0.00 | 42 | 1010.8 |
| 20260901200029 | 36 | 128 | 4.8 | 14.5 | 0.00 | 0.00 | 0.00 | 42 | 1010.9 |
| 20260901195518 | 36 | 105 | 1.6 | 14.5 | 0.00 | 0.00 | 0.00 | 43 | 1010.9 |
| 20260901195008 | 36 | 187 | 4.8 | 19.3 | 0.00 | 0.00 | 0.00 | 43 | 1011.0 |
| 20260901194600 | 36 | 157 | 4.8 | 19.3 | 0.00 | 0.00 | 0.00 | 45 | 1011.1 |
| 20260901194050 | 36 | 119 | 9.7 | 17.7 | 0.00 | 0.00 | 0.00 | 45 | 1011.1 |
| 20260901193537 | 35 | 138 | 8.0 | 17.7 | 0.00 | 0.00 | 0.00 | 46 | 1011.2 |
| 20260901193026 | 35 | 190 | 4.8 | 11.3 | 0.00 | 0.00 | 0.00 | 47 | 1011.2 |
| 20260901192515 | 35 | 198 | 0.0 | 9.7 | 0.00 | 0.00 | 0.00 | 47 | 1011.3 |
| 20260901192005 | 35 | 209 | 4.8 | 9.7 | 0.00 | 0.00 | 0.00 | 47 | 1011.4 |
| 20260901191556 | 35 | 196 | 0.0 | 11.3 | 0.00 | 0.00 | 0.00 | 47 | 1011.4 |
| 20260901191045 | 35 | 74 | 0.0 | 14.5 | 0.00 | 0.00 | 0.00 | 46 | 1011.5 |
| 20260901190534 | 35 | 182 | 6.4 | 14.5 | 0.00 | 0.00 | 0.00 | 47 | 1011.5 |
| 20260901190011 | 35 | 90 | 0.0 | 6.4 | 0.00 | 0.00 | 0.00 | 46 | 1011.6 |
| 20260901185603 | 35 | 49 | 0.0 | 8.0 | 0.00 | 0.00 | 0.00 | 45 | 1011.8 |
| 20260901185051 | 35 | 153 | 3.2 | 12.9 | 0.00 | 0.00 | 0.00 | 45 | 1011.8 |
| 20260901184547 | 35 | 171 | 6.4 | 14.5 | 0.00 | 0.00 | 0.00 | 45 | 1011.9 |
| 20260901184030 | 35 | 162 | 6.4 | 14.5 | 0.00 | 0.00 | 0.00 | 45 | 1012.0 |
| 20260901183518 | 35 | 274 | 1.6 | 16.1 | 0.00 | 0.00 | 0.00 | 45 | 1012.1 |
| 20260901183008 | 35 | 171 | 9.7 | 17.7 | 0.00 | 0.00 | 0.00 | 46 | 1012.2 |
| 20260901182600 | 35 | 225 | 3.2 | 9.7 | 0.00 | 0.00 | 0.00 | 45 | 1012.3 |
| 20260901182049 | 35 | 110 | 4.8 | 19.3 | 0.00 | 0.00 | 0.00 | 45 | 1012.4 |
| 20260901181539 | 35 | 121 | 9.7 | 19.3 | 0.00 | 0.00 | 0.00 | 45 | 1012.5 |
| 20260901181027 | 35 | 91 | 8.0 | 14.5 | 0.00 | 0.00 | 0.00 | 45 | 1012.5 |
| 20260901180516 | 35 | 184 | 4.8 | 12.9 | 0.00 | 0.00 | 0.00 | 46 | 1012.5 |
| 20260901180058 | 35 | 11 | 0.0 | 16.1 | 0.00 | 0.00 | 0.00 | 45 | 1012.6 |
| 20260901175543 | 35 | 101 | 4.8 | 16.1 | 0.00 | 0.00 | 0.00 | 45 | 1012.8 |
| 20260901175033 | 35 | 132 | 6.4 | 19.3 | 0.00 | 0.00 | 0.00 | 46 | 1012.9 |
| 20260901174522 | 35 | 148 | 9.7 | 20.9 | 0.00 | 0.00 | 0.00 | 46 | 1013.0 |
| 20260901174014 | 35 | 119 | 9.7 | 19.3 | 0.00 | 0.00 | 0.00 | 46 | 1013.0 |
| 20260901173500 | 35 | 153 | 6.4 | 19.3 | 0.00 | 0.00 | 0.00 | 46 | 1013.0 |
| 20260901173052 | 35 | 115 | 8.0 | 19.3 | 0.00 | 0.00 | 0.00 | 47 | 1013.1 |
| 20260901172544 | 34 | 207 | 4.8 | 14.5 | 0.00 | 0.00 | 0.00 | 47 | 1013.1 |
| 20260901172031 | 34 | 53 | 3.2 | 11.3 | 0.00 | 0.00 | 0.00 | 47 | 1013.2 |
| 20260901171519 | 34 | 188 | 1.6 | 20.9 | 0.00 | 0.00 | 0.00 | 47 | 1013.2 |
| 20260901171008 | 33 | 115 | 9.7 | 20.9 | 0.00 | 0.00 | 0.00 | 47 | 1013.2 |
| 20260901170559 | 33 | 150 | 4.8 | 12.9 | 0.00 | 0.00 | 0.00 | 47 | 1013.2 |
| 20260901170040 | 33 | 219 | 6.4 | 19.3 | 0.00 | 0.00 | 0.00 | 48 | 1013.4 |
| 20260901165526 | 33 | 99 | 0.0 | 16.1 | 0.00 | 0.00 | 0.00 | 48 | 1013.4 |
| 20260901165015 | 33 | 203 | 9.7 | 16.1 | 0.00 | 0.00 | 0.00 | 48 | 1013.4 |
| 20260901164505 | 33 | 138 | 4.8 | 12.9 | 0.00 | 0.00 | 0.00 | 49 | 1013.4 |
| 20260901164056 | 33 | 208 | 3.2 | 16.1 | 0.00 | 0.00 | 0.00 | 49 | 1013.4 |
| 20260901163545 | 33 | 87 | 6.4 | 16.1 | 0.00 | 0.00 | 0.00 | 49 | 1013.4 |
| 20260901163035 | 33 | 82 | 4.8 | 11.3 | 0.00 | 0.00 | 0.00 | 50 | 1013.4 |
| 20260901162523 | 32 | 128 | 1.6 | 11.3 | 0.00 | 0.00 | 0.00 | 51 | 1013.5 |
| 20260901162013 | 32 | 171 | 4.8 | 11.3 | 0.00 | 0.00 | 0.00 | 51 | 1013.6 |
| 20260901161503 | 32 | 142 | 6.4 | 12.9 | 0.00 | 0.00 | 0.00 | 50 | 1013.6 |
| 20260901161054 | 32 | 160 | 4.8 | 12.9 | 0.00 | 0.00 | 0.00 | 51 | 1013.6 |
| 20260901160542 | 32 | 273 | 4.8 | 12.9 | 0.00 | 0.00 | 0.00 | 52 | 1013.7 |
| 20260901160024 | 32 | 70 | 0.0 | 12.9 | 0.00 | 0.00 | 0.00 | 53 | 1013.6 |
| 20260901155509 | 32 | 158 | 0.0 | 9.7 | 0.00 | 0.00 | 0.00 | 54 | 1013.6 |
| 20260901155102 | 32 | 90 | 3.2 | 12.9 | 0.00 | 0.00 | 0.00 | 55 | 1013.6 |
| 20260901154551 | 31 | 114 | 1.6 | 12.9 | 0.00 | 0.00 | 0.00 | 55 | 1013.7 |
| 20260901154038 | 31 | 186 | 3.2 | 12.9 | 0.00 | 0.00 | 0.00 | 56 | 1013.7 |